This demonstration page uses our WeatherBlox Daily Observations layout. Learn more.

Left ArrowRight Arrow

44.8408, -93.29828

Hourly Observations for August 6, 2017

Temp ( °F °C ) Dew Point ( °F °C ) Humidity (%) Winds ( mph kmh ) Pressure ( in mb ) Visibility ( mi km ) Precip ( " mm )
12:53 am 00:53 Partly Cloudy 62 16.7 59 15 90 90 Calm 29.99 1016 10 16 0.00 0.00
1:53 am 01:53 Cloudy 64 17.8 58 14.4 81 81 SSW 3 6 30.00 1016 10 16 0.00 0.00
2:53 am 02:53 Cloudy 64 17.8 58 14.4 81 81 Calm 30.00 1016 10 16 0.00 0.00
3:53 am 03:53 Cloudy 64 17.8 58 14.4 81 81 Calm 30.00 1016 10 16 0.00 0.00
4:53 am 04:53 Cloudy 63 17.2 60 15.6 90 90 Calm 30.00 1016 9 14 0.00 0.00
5:53 am 05:53 Cloudy 64 17.8 58 14.4 81 81 Calm 30.01 1016 9 14 0.00 0.00
6:53 am 06:53 Cloudy 64 17.8 58 14.4 81 81 Calm 30.02 1017 10 16 0.00 0.00
7:53 am 07:53 Mostly Cloudy 65 18.3 59 15 81 81 N 5 7 30.02 1017 10 16 0.00 0.00
8:53 am 08:53 Mostly Cloudy 67 19.4 60 15.6 79 79 Calm 30.02 1017 10 16 0.00 0.00
9:53 am 09:53 Mostly Cloudy 69 20.6 60 15.6 73 73 NNW 6 9 30.02 1017 10 16 0.00 0.00
10:53 am 10:53 Mostly Cloudy 72 22.2 58 14.4 61 61 NNW 6 9 30.02 1017 10 16 0.00 0.00
11:53 am 11:53 Mostly Cloudy 75 23.9 58 14.4 55 55 Calm 30.02 1017 10 16 0.00 0.00
12:53 pm 12:53 Mostly Cloudy 76 24.4 56 13.3 50 50 VRB 3 6 30.02 1017 10 16 0.00 0.00
1:34 pm 13:34 Cloudy with Nearby Thunderstorms 70 21.1 59 15 68 68 N 7 11 30.00 1016 10 16 0.00 0.03
1:53 pm 13:53 Cloudy with Nearby Thunderstorms 71 21.7 60 15.6 68 68 NNW 7 11 30.03 1017 10 16 0.00 0.03
2:10 pm 14:10 Cloudy with Thunderstorms 70 21.1 58 14.4 66 66 NNE 15 24 30.00 1016 10 16 0.00 0.00
2:37 pm 14:37 Cloudy 68 20 57 13.9 68 68 NNE 10 17 30.00 1016 10 16 0.00 0.00
2:53 pm 14:53 Mostly Cloudy 69 20.6 54 12.2 59 59 E 8 13 30.03 1017 10 16 0.00 0.00
2:56 pm 14:56 Mostly Cloudy with Nearby Thunderstorms 69 20.6 53 11.7 57 57 ENE 8 13 30.00 1016 10 16 0.00 0.00
3:19 pm 15:19 Mostly Cloudy 70 21.1 53 11.7 55 55 SSE 9 15 30.03 1017 10 16 0.00 0.00
3:53 pm 15:53 Mostly Cloudy 69 20.6 56 13.3 63 63 S 12 19 30.03 1017 10 16 0.00 0.00
4:53 pm 16:53 Mostly Cloudy 70 21.1 57 13.9 64 64 SSW 8 13 30.02 1017 10 16 0.00 0.00
5:53 pm 17:53 Mostly Cloudy 70 21.1 58 14.4 66 66 VRB 5 7 30.03 1017 10 16 0.00 0.00
6:53 pm 18:53 Cloudy 69 20.6 59 15 70 70 SSE 3 6 30.04 1017 10 16 0.00 0.03
7:53 pm 19:53 Cloudy with Light Rain 66 18.9 59 15 78 78 NE 10 17 30.06 1018 10 16 0.03 0.76
8:53 pm 20:53 Cloudy with Light Rain 64 17.8 57 13.9 78 78 NNW 6 9 30.04 1017 10 16 0.05 1.27
9:53 pm 21:53 Cloudy 64 17.8 59 15 84 84 VRB 6 9 30.06 1018 10 16 0.01 0.25
10:53 pm 22:53 Cloudy 63 17.2 60 15.6 90 90 Calm 30.06 1018 8 13 0.00 0.00
11:53 pm 23:53 Cloudy 63 17.2 60 15.6 90 90 NNE 3 6 30.07 1018 10 16 0.00 0.00

Powered by AerisWeather